星链-31013 (STARLINK-31013 )

导读 | 豆包AI

STARLINK-31013是美国SpaceX公司星链(Starlink)低轨通信星座的一员,于2023年12月7日发射入轨。星链星座旨在为全球提供宽带互联网服务,该卫星采用平板设计、氪工质霍尔推进器,具备自主避撞能力,运行于近地轨道,设计寿命5-7年,退役后将主动离轨再入大气层烧毁,服务全球卫星互联网接入。

基本信息
目录编号:
58526
目录名称:
STARLINK-31013
国际标识:
2023-191U
轨道中心:
EARTH
卫星名称:
星链-31013
卫星全名:
星链-31013 (STARLINK-31013 )
卫星状态:
在轨 (已飞行875 天)
发射日期:
2023-12-07 UTC
国别 :
美国 (US)
星等 :
--
轨道信息
数据来源 国际轨道数据 AOE轨道数据
星历时间 2026-04-30T20:57:08+0800
8小时前
查看轨道信息
2026-04-28T08:00:00+0800
2天前
查看轨道信息
半长轴 6920.178km 6920.56km
偏心率 0.0004617 0.0004548
轨道倾角 42.999° 42.995°
近地点辐角 20.430° 11.527°
升交点赤经 181.466° 195.383°
平近点角 339.673° 224.881°
近地点 538.845km 539.275km
远地点 545.237km 545.571km
周期 95.485分钟 95.493分钟
每日圈数 15.080888 15.079638
详细信息
固有亮度:
5
最大亮度:
0.3
卫星平台:
Starlink v2.0 mini
覆盖范围:
全球
运营商:
太空探索技术公司
运营商所在国:
美国
制造商(研发单位):
太空探索技术公司
制造商所在国:
美国
使用方式:
暂无
卫星简介
星链(Starlink)计划是由太空探索技术公司(SpaceX)提出的一个巨型低轨卫星互联网星座项目,计划在2019年至2024年间在太空搭建由约1.2万颗卫星组成的“星链”网络,其中1584颗将部署在地球上空550千米处的近地轨道,并从2020年开始工作。该卫星仍在工作。
2D轨道图
3D轨道图
轨道高度分析图
轨道倾角分析图
轨道综合分析图
查看轨道综合分析图